Location: Dammartin
(48.9032°N, 1.6195°E)
Time: 11:43:51
(UTC+00:00)

Cosmos 1553 Rocket - Pass Details

Date: 03 February 2023
Orbit: 942 x 1007 km, 82.9° (Epoch: 25 March)

Event Time Altitude Azimuth Distance (km) Brightness Sun altitude
Rises 17:53:58 0° 160° (SSE) 3,598 6.9 -10.2°
Reaches altitude 10° 17:56:36 10° 152° (SSE) 2,661 6.1 -10.6°
Maximum altitude 18:02:05 37° 87° (E) 1,444 4.4 -11.5°
Drops below altitude 10° 18:07:39 10° 23° (NNE) 2,708 6.0 -12.4°
Sets 18:10:21 0° 15° (NNE) 3,669 6.8 -12.8°
